1487602800.95,58236,14.25,73024.5,-6.01,-34.13,-35.07,0,*59
1487602802.2,58237,14.25,73030.3,-6.01,-33.77,-34.35,0,*5D
1487602803.45,58238,14.25,73024.5,-6.01,-33.43,-34.19,0,*5B
1487602804.68,58239,14.25,73026.3,-6.01,-33.09,-33.67,0,*5A
1487602805.92,58240,14.25,73028.3,-6.01,-32.75,-33.67,0,*5E
1487602807.14,58241,14.25,73034.8,-5.99,-32.51,-33.83,0,*51
1487602808.4,58242,14.25,73034.5,-6.01,-32.75,-34.31,0,*58
1487602809.63,58243,14.25,73038.5,-6.01,-32.75,-34.47,0,*58
1487602810.88,58244,14.25,73038.0,-6.01,-32.75,-34.31,0,*5E
1487602812.14,58245,14.25,73042.3,-5.99,-33.09,-34.59,0,*59
1487602813.37,58246,14.19,73036.8,-5.99,-33.37,-34.71,0,*5D
1487602814.6,58247,14.25,73036.5,-6.01,-33.27,-34.71,0,*5F
1487602815.81,58248,14.19,73034.5,-6.01,-33.37,-34.77,0,*57
1487602817.03,58249,14.19,73034.5,-6.01,-33.43,-34.89,0,*54
1487602818.27,58250,14.25,73036.5,-6.01,-33.49,-34.77,0,*57
1487602819.5,58251,14.19,73036.0,-6.01,-33.83,-35.07,0,*56
1487602820.7,58252,14.25,73040.5,-6.01,-33.95,-35.13,0,*57
1487602821.95,58253,14.25,73040.3,-5.99,-33.61,-34.89,0,*5D
1487602823.16,58254,14.25,73038.8,-6.05,-33.67,-35.01,0,*5B
1487602824.37,58255,14.25,73042.8,-6.01,-33.67,-34.89,0,*5F
1487602825.6,58256,14.25,73042.8,-6.01,-33.49,-34.77,0,*51
1487602826.86,58257,14.19,73040.0,-5.99,-33.49,-34.77,0,*52
1487602828.09,58258,14.25,73042.5,-6.01,-33.61,-34.77,0,*55
1487602829.32,58259,14.25,73044.5,-6.01,-33.83,-34.95,0,*54
1487602830.58,58260,14.25,73040.8,-6.01,-33.77,-34.95,0,*55
1487602831.8,58261,14.25,73042.8,-6.05,-34.07,-35.29,0,*56
1487602833.03,58262,14.25,73044.0,-6.05,-34.07,-35.35,0,*58
1487602834.29,58263,14.25,73046.3,-6.05,-33.73,-34.83,0,*51
1487602835.52,58264,14.25,73046.3,-6.01,-33.61,-34.77,0,*5A
1487602836.73,58265,14.25,73044.5,-6.01,-33.67,-34.89,0,*5C
1487602837.96,58266,14.19,73038.3,-6.01,-33.83,-35.07,0,*52
1487602839.19,58267,14.25,73040.3,-6.05,-33.89,-35.13,0,*58
1487602840.43,58268,14.19,73036.8,-6.05,-34.01,-35.13,0,*50
1487602841.66,58269,14.19,73036.8,-6.05,-34.01,-35.13,0,*51
1487602842.88,58270,14.19,73036.8,-6.05,-33.83,-35.13,0,*54
1487602844.1,58271,14.19,73036.0,-6.05,-33.89,-35.17,0,*5B
1487602845.34,58272,14.25,73038.0,-6.05,-34.19,-35.29,0,*5B
1487602846.61,58273,14.25,73036.5,-6.07,-34.31,-35.59,0,*55
1487602847.84,58274,14.25,73036.0,-6.05,-34.35,-35.47,0,*5B
1487602849.08,58275,14.25,73036.5,-6.05,-34.25,-35.35,0,*5E
1487602850.29,58276,14.25,73036.8,-6.05,-34.25,-35.47,0,*58
1487602851.52,58277,14.25,73034.5,-6.05,-34.19,-35.29,0,*5E
1487602852.76,58278,14.25,73034.8,-6.07,-33.95,-35.13,0,*59
1487602853.97,58279,14.25,73040.0,-6.05,-33.83,-35.13,0,*5D
1487602855.23,58280,14.25,73036.5,-6.07,-33.95,-35.23,0,*5D
1487602856.49,58281,14.25,73038.5,-6.07,-34.25,-35.41,0,*54
1487602857.74,58282,14.25,73038.0,-6.07,-34.47,-35.77,0,*56
1487602858.97,58283,14.25,73036.0,-6.07,-34.41,-35.71,0,*57
1487602860.2,58284,14.25,73038.8,-6.07,-33.95,-35.17,0,*5E
1487602861.45,58285,14.19,73034.0,-6.09,-33.73,-35.01,0,*5E
1487602862.65,58286,14.25,73032.5,-6.09,-33.95,-35.17,0,*52
1487602863.94,58287,14.25,73034.8,-6.07,-33.77,-35.07,0,*50
1487602865.22,58288,14.25,73032.3,-6.07,-33.89,-35.07,0,*5E
1487602866.45,58289,14.25,73034.8,-6.07,-33.55,-34.71,0,*5E
1487602867.7,58290,14.25,73034.8,-6.07,-33.55,-34.83,0,*5B
1487602868.96,58291,14.25,73032.0,-6.07,-33.55,-34.65,0,*52
1487602870.19,58292,14.25,73036.0,-6.07,-33.55,-34.89,0,*53
1487602871.48,58293,14.25,73034.3,-6.07,-33.77,-35.07,0,*55
1487602872.71,58294,14.25,73032.3,-6.07,-34.25,-35.59,0,*59
1487602873.95,58295,14.25,73030.3,-6.07,-34.47,-35.71,0,*56
1487602875.19,58296,14.25,73034.8,-6.07,-34.41,-35.71,0,*53
1487602876.45,58297,14.25,73038.5,-6.07,-34.25,-35.35,0,*50
1487602877.65,58298,14.25,73036.8,-6.09,-33.95,-35.17,0,*5D
1487602878.87,58299,14.25,73038.8,-6.09,-34.41,-35.77,0,*54
1487602880.13,58300,14.25,73040.5,-6.11,-34.35,-35.59,0,*53
1487602881.36,58301,14.19,73034.8,-6.11,-33.95,-35.17,0,*55
1487602882.65,58302,14.25,73042.0,-6.11,-34.19,-35.41,0,*56
1487602883.88,58303,14.25,73038.8,-6.09,-33.89,-35.17,0,*53
1487602885.16,58304,14.25,73034.8,-6.11,-34.31,-35.65,0,*5C
1487602886.45,58305,14.25,73042.5,-6.11,-34.31,-35.41,0,*5B
1487602887.71,58306,14.25,73040.0,-6.11,-33.95,-35.41,0,*51
1487602888.94,58307,14.25,73042.5,-6.09,-33.95,-35.23,0,*5D
1487602890.18,58308,14.25,73042.0,-6.11,-33.95,-35.29,0,*51
1487602891.44,58309,14.25,73040.0,-6.11,-34.19,-35.47,0,*5B
1487602892.68,58310,14.25,73042.0,-6.09,-34.07,-35.41,0,*53
1487602893.97,58311,14.25,73040.3,-6.11,-34.01,-35.23,0,*59
1487602895.26,58312,14.25,73042.3,-6.11,-34.01,-35.41,0,*5E
1487602896.55,58313,14.25,73038.8,-6.11,-34.01,-35.41,0,*5F
1487602897.78,58314,14.25,73040.8,-6.13,-33.95,-35.23,0,*54
1487602899.02,58315,14.25,73040.3,-6.13,-34.01,-35.47,0,*5D
1487602900.26,58316,14.25,73040.5,-6.13,-34.13,-35.41,0,*5B
1487602901.52,58317,14.25,73042.3,-6.13,-34.19,-35.41,0,*50
1487602902.79,58318,14.25,73034.8,-6.13,-34.01,-35.41,0,*56
1487602904.05,58319,14.25,73036.0,-6.13,-34.01,-35.23,0,*53
1487602905.27,58320,14.19,73028.3,-6.13,-34.13,-35.29,0,*50
1487602906.54,58321,14.25,73034.5,-6.13,-34.01,-35.41,0,*5C
1487602907.79,58322,14.25,73036.5,-6.13,-34.19,-35.23,0,*52
1487602909.01,58323,14.25,73032.8,-6.13,-34.13,-35.29,0,*53
1487602910.23,58324,14.25,73034.0,-6.13,-34.13,-35.29,0,*54
1487602911.45,58325,14.25,73032.8,-6.13,-33.95,-35.29,0,*5C
1487602912.69,58326,14.25,73032.8,-6.13,-34.01,-35.29,0,*55
1487602913.94,58327,14.25,73042.5,-6.13,-34.01,-35.29,0,*54
1487602915.17,58328,14.25,73044.5,-6.13,-33.83,-35.23,0,*5C
1487602916.41,58329,14.25,73042.0,-6.13,-34.01,-35.47,0,*52
1487602917.66,58330,14.19,73042.8,-6.13,-34.35,-35.77,0,*5E
1487602918.9,58331,14.25,73044.8,-6.13,-34.31,-35.59,0,*57
1487602920.17,58332,14.25,73042.5,-6.13,-34.53,-35.83,0,*57
1487602921.41,58333,14.25,73044.5,-6.13,-34.31,-35.59,0,*55
1487602922.67,58334,14.25,73044.5,-6.13,-34.01,-35.23,0,*5C
1487602923.93,58335,14.25,73040.0,-6.13,-34.01,-35.23,0,*5D
1487602925.15,58336,14.25,73038.0,-6.13,-34.13,-35.29,0,*57
1487602926.39,58337,14.25,73036.8,-6.13,-34.01,-35.29,0,*55
1487602927.61,58338,14.25,73032.8,-6.13,-34.13,-35.47,0,*51
1487602928.87,58339,14.25,73032.3,-6.13,-34.19,-35.41,0,*5C
1487602930.14,58340,14.25,73034.0,-6.13,-34.01,-35.41,0,*5B
1487602931.38,58341,14.25,73038.3,-6.13,-34.01,-35.29,0,*54
1487602932.64,58342,14.25,73032.8,-6.13,-34.19,-35.65,0,*56
1487602933.91,58343,14.25,73032.5,-6.13,-34.01,-35.41,0,*58
1487602935.14,58344,14.19,73028.8,-6.13,-33.83,-35.23,0,*56
1487602936.36,58345,14.25,73036.5,-6.13,-33.95,-35.29,0,*5A
1487602937.58,58346,14.25,73046.5,-6.13,-34.13,-35.47,0,*58
1487602938.85,58347,14.25,73044.3,-6.13,-34.65,-35.83,0,*50
1487602940.07,58348,14.25,73044.3,-6.13,-34.47,-35.77,0,*54
1487602941.34,58349,14.25,73044.3,-6.13,-34.31,-35.65,0,*57
1487602942.58,58350,14.25,73038.3,-6.13,-34.35,-35.77,0,*58
1487602943.83,58351,14.25,73038.8,-6.13,-34.53,-35.77,0,*59
1487602945.06,58352,14.25,73032.8,-6.13,-34.47,-35.77,0,*5F
1487602946.28,58353,14.25,73032.3,-6.13,-34.47,-35.77,0,*5E
1487602947.55,58354,14.25,73036.3,-6.13,-34.53,-35.83,0,*57
1487602948.79,58355,14.19,73030.0,-6.17,-34.59,-35.65,0,*50
1487602950.0,58356,14.25,73028.5,-6.17,-34.25,-35.47,0,*58
1487602951.24,58357,14.25,73030.8,-6.17,-34.19,-35.47,0,*56
1487602952.48,58358,14.19,73028.0,-6.17,-34.19,-35.29,0,*51
1487602953.72,58359,14.25,73030.8,-6.17,-34.19,-35.29,0,*50
1487602954.98,58360,14.19,73024.3,-6.17,-34.35,-35.65,0,*5C
1487602956.21,58361,14.19,73022.5,-6.17,-34.71,-35.89,0,*5F
1487602957.44,58362,14.25,73026.8,-6.17,-34.41,-35.65,0,*5D
1487602958.65,58363,14.19,73024.8,-6.17,-34.41,-35.59,0,*53
1487602959.89,58364,14.25,73028.0,-6.17,-34.31,-35.47,0,*5C
1487602961.11,58365,14.25,73034.3,-6.17,-34.07,-35.29,0,*50
1487602962.32,58366,14.25,73032.0,-6.17,-34.25,-35.47,0,*5B
1487602963.62,58367,14.25,73036.3,-6.19,-34.65,-35.95,0,*5F
1487602964.85,58368,14.25,73038.8,-6.17,-34.35,-35.71,0,*51
1487602966.09,58369,14.19,73038.3,-6.17,-34.19,-35.47,0,*5B
1487602967.34,58370,14.25,73036.8,-6.19,-34.47,-35.71,0,*53
1487602968.6,58371,14.25,73040.3,-6.19,-34.31,-35.59,0,*59
1487602969.87,58372,14.25,73042.8,-6.19,-34.07,-35.41,0,*56
1487602971.14,58373,14.25,73040.3,-6.19,-34.07,-35.41,0,*57
1487602972.41,58374,14.25,73042.0,-6.19,-34.31,-35.59,0,*5C
1487602973.67,58375,14.25,73044.8,-6.19,-34.25,-35.53,0,*52
1487602974.93,58376,14.19,73042.3,-6.19,-33.89,-35.17,0,*50
1487602976.19,58377,14.25,73040.8,-6.19,-34.25,-35.41,0,*53
1487602977.4,58378,14.25,73040.3,-6.21,-34.41,-35.71,0,*56
1487602978.62,58379,14.25,73036.8,-6.21,-34.47,-35.71,0,*51
1487602979.85,58380,14.25,73036.5,-6.21,-34.41,-35.41,0,*52
1487602981.08,58381,14.25,73038.8,-6.21,-33.89,-35.17,0,*53
1487602982.32,58382,14.19,73032.5,-6.23,-34.13,-35.13,0,*52
1487602983.55,58383,14.25,73038.5,-6.21,-34.13,-35.23,0,*52
1487602984.82,58384,14.25,73034.0,-6.23,-34.01,-35.47,0,*56
1487602986.03,58385,14.19,73034.5,-6.21,-34.25,-35.71,0,*56
1487602987.27,58386,14.25,73038.5,-6.21,-34.31,-35.77,0,*56
1487602988.51,58387,14.25,73036.0,-6.21,-34.07,-35.41,0,*57
1487602989.77,58388,14.25,73038.5,-6.23,-34.13,-35.41,0,*5F
1487602991.01,58389,14.25,73040.8,-6.21,-34.25,-35.53,0,*5A
1487602992.27,58390,14.25,73040.3,-6.23,-34.19,-35.47,0,*5A
1487602993.48,58391,14.25,73040.8,-6.21,-34.41,-35.71,0,*51
1487602994.74,58392,14.25,73038.8,-6.23,-34.13,-35.41,0,*54
1487602996.03,58393,14.25,73036.8,-6.23,-34.19,-35.41,0,*5F
1487602997.3,58394,14.25,73038.8,-6.21,-34.31,-35.53,0,*53
1487602998.53,58395,14.25,73034.0,-6.21,-34.31,-35.59,0,*58
1487602999.77,58396,14.25,73032.8,-6.21,-34.31,-35.59,0,*5B
1487603001.01,58397,14.25,73038.8,-6.23,-34.47,-35.59,0,*59
1487603002.24,58398,14.25,73034.8,-6.21,-34.41,-35.53,0,*58
1487603003.49,58399,14.25,73034.8,-6.21,-34.47,-35.53,0,*5F
1487603004.75,58400,14.25,73034.3,-6.21,-34.31,-35.35,0,*59
1487603005.98,58401,14.25,73032.5,-6.21,-34.25,-35.35,0,*5D
1487603007.24,58402,14.25,73034.0,-6.23,-34.35,-35.47,0,*58
1487603008.54,58403,14.25,73030.0,-6.23,-34.83,-35.95,0,*5B
1487603009.84,58404,14.25,73030.5,-6.23,-35.07,-36.25,0,*59
1487603011.09,58405,14.25,73032.5,-6.23,-35.41,-36.43,0,*5A
1487603012.33,58406,14.25,73028.3,-6.25,-34.89,-35.95,0,*52
1487603013.56,58407,14.25,73028.8,-6.25,-34.47,-35.47,0,*5E
1487603014.78,58408,14.25,73032.0,-6.25,-34.47,-35.59,0,*5E
1487603016.02,58409,14.25,73030.5,-6.25,-34.35,-35.47,0,*55
1487603017.26,58410,14.25,73034.5,-6.25,-34.35,-35.59,0,*52
1487603018.5,58411,14.25,73034.5,-6.25,-34.47,-35.65,0,*59
1487603019.77,58412,14.25,73028.8,-6.25,-34.53,-35.83,0,*57
1487603021.04,58413,14.25,73032.3,-6.25,-34.65,-35.83,0,*53
1487603022.32,58414,14.25,73032.3,-6.25,-34.65,-35.95,0,*53
1487603023.59,58415,14.19,73034.3,-6.25,-34.65,-35.83,0,*55
1487603024.84,58416,14.25,73038.3,-6.29,-34.59,-35.89,0,*5F
1487603026.07,58417,14.25,73042.0,-6.29,-34.77,-36.07,0,*57
1487603027.32,58418,14.25,73040.3,-6.29,-34.59,-35.89,0,*51
1487603028.56,58419,14.25,73040.0,-6.29,-34.71,-36.01,0,*59
1487603029.85,58420,14.25,73044.3,-6.29,-34.95,-36.25,0,*5F
1487603031.06,58421,14.25,73044.0,-6.25,-35.01,-36.31,0,*5B
1487603032.31,58422,14.25,73046.3,-6.29,-34.71,-36.01,0,*51
1487603033.57,58423,14.25,73050.5,-6.29,-34.71,-35.83,0,*59
1487603034.81,58424,14.25,73044.8,-6.29,-34.71,-36.07,0,*51
1487603036.06,58425,14.25,73042.3,-6.29,-34.89,-36.25,0,*57
1487603037.3,58426,14.25,73040.3,-6.31,-34.89,-36.25,0,*5D
1487603038.5,58427,14.19,73036.8,-6.31,-34.89,-36.19,0,*53
1487603039.73,58428,14.25,73038.3,-6.31,-34.95,-36.07,0,*5E
1487603040.93,58429,14.25,73038.0,-6.31,-34.89,-36.07,0,*52
1487603042.14,58430,14.25,73038.0,-6.31,-34.89,-36.01,0,*5C
1487603043.43,58431,14.25,73038.8,-6.33,-34.95,-36.13,0,*51
1487603044.7,58432,14.25,73036.5,-6.33,-34.59,-35.95,0,*5F
1487603045.96,58433,14.25,73038.0,-6.31,-34.53,-35.65,0,*59
1487603047.19,58434,14.25,73038.3,-6.31,-34.59,-35.65,0,*54
1487603048.45,58435,14.25,73038.5,-6.31,-34.53,-35.65,0,*5F
1487603049.66,58436,14.25,73038.0,-6.31,-34.59,-35.71,0,*53
1487603050.9,58437,14.25,73034.5,-6.33,-34.47,-35.59,0,*55
1487603052.12,58438,14.25,73032.5,-6.31,-34.71,-35.89,0,*50
1487603053.39,58439,14.25,73034.8,-6.33,-35.01,-36.25,0,*50
1487603054.66,58440,14.25,73032.8,-6.33,-35.01,-36.25,0,*5E
1487603055.93,58441,14.25,73038.3,-6.33,-34.65,-35.77,0,*58
1487603057.22,58442,14.25,73038.5,-6.33,-34.83,-35.95,0,*5F
1487603058.47,58443,14.25,73036.5,-6.33,-34.77,-35.89,0,*58
1487603059.73,58444,14.25,73036.0,-6.31,-34.65,-35.65,0,*5C
1487603060.95,58445,14.19,73032.8,-6.31,-34.77,-35.89,0,*5C
1487603062.18,58446,14.25,73034.3,-6.31,-34.77,-35.83,0,*55
1487603063.43,58447,14.25,73040.8,-6.33,-34.77,-35.77,0,*5D
1487603064.66,58448,14.25,73042.5,-6.31,-34.59,-35.65,0,*5F
1487603065.9,58449,14.25,73044.0,-6.33,-34.47,-35.59,0,*5C
1487603067.17,58450,14.25,73038.8,-6.33,-34.59,-35.41,0,*52
1487603068.42,58451,14.25,73038.8,-6.33,-34.41,-35.53,0,*59
1487603069.68,58452,14.25,73040.5,-6.33,-35.01,-36.13,0,*58
1487603070.92,58453,14.25,73038.0,-6.35,-34.95,-36.07,0,*56
1487603072.13,58454,14.25,73038.0,-6.35,-34.77,-35.71,0,*5F
1487603073.37,58455,14.25,73040.3,-6.35,-34.83,-36.07,0,*57
1487603074.63,58456,14.25,73040.0,-6.35,-34.83,-36.13,0,*51
1487603075.92,58457,14.25,73034.0,-6.37,-34.83,-35.95,0,*5F
1487603077.14,58458,14.25,73032.3,-6.35,-34.47,-35.71,0,*50
1487603078.43,58459,14.25,73028.0,-6.37,-34.65,-35.95,0,*59
1487603079.68,58460,14.25,73030.8,-6.35,-34.71,-35.83,0,*53
1487603080.96,58461,14.25,73034.3,-6.37,-34.65,-35.83,0,*55
1487603082.19,58462,14.25,73032.5,-6.35,-34.59,-35.77,0,*50
1487603083.46,58463,14.25,73034.0,-6.37,-34.71,-35.95,0,*55
1487603084.75,58464,14.25,73036.8,-6.37,-34.65,-35.83,0,*50
1487603085.99,58465,14.25,73036.5,-6.37,-34.71,-35.77,0,*5F
1487603087.21,58466,14.25,73032.8,-6.35,-34.59,-35.59,0,*58
1487603088.43,58467,14.25,73034.8,-6.35,-34.59,-35.77,0,*55
1487603089.67,58468,14.25,73034.3,-6.35,-34.71,-35.83,0,*5B
1487603090.9,58469,14.25,73032.5,-6.35,-34.77,-35.89,0,*56
1487603092.12,58470,14.25,73036.5,-6.35,-34.77,-35.89,0,*5E
1487603093.34,58471,14.25,73036.5,-6.35,-34.77,-35.77,0,*5E
1487603094.61,58472,14.25,73036.8,-6.35,-34.83,-35.95,0,*5A
1487603095.87,58473,14.25,73034.8,-6.35,-34.95,-36.13,0,*51
1487603097.11,58474,14.25,73038.0,-6.35,-34.95,-36.07,0,*53
1487603098.4,58475,14.25,73036.5,-6.37,-34.83,-35.95,0,*5F
1487603099.63,58476,14.25,73030.0,-6.37,-35.29,-36.43,0,*55
1487603100.91,58477,14.25,73030.3,-6.33,-35.35,-36.37,0,*5E
1487603102.15,58478,14.25,73028.5,-6.39,-35.53,-36.79,0,*51
1487603103.38,58479,14.25,73030.8,-6.39,-35.83,-36.85,0,*5E
1487603104.61,58480,14.25,73034.5,-6.39,-35.47,-36.49,0,*50
1487603105.82,58481,14.25,73038.0,-6.39,-35.13,-36.07,0,*5A
1487603107.02,58482,14.25,73036.8,-6.39,-35.13,-36.19,0,*56
1487603108.26,58483,14.25,73038.0,-6.39,-35.07,-36.19,0,*52
1487603109.46,58484,14.25,73034.8,-6.39,-35.13,-36.07,0,*5F
1487603110.72,58485,14.25,73034.0,-6.41,-35.07,-36.07,0,*54
1487603111.95,58486,14.25,73032.0,-6.41,-35.17,-36.19,0,*59
1487603113.18,58487,14.25,73034.3,-6.41,-35.13,-36.01,0,*55
1487603114.45,58488,14.25,73032.8,-6.41,-34.95,-35.89,0,*56
1487603115.72,58489,14.25,73040.0,-6.41,-34.95,-36.01,0,*54
1487603116.96,58490,14.25,73040.0,-6.41,-34.89,-35.89,0,*52
1487603118.23,58491,14.25,73040.3,-6.41,-34.95,-36.01,0,*5D
1487603119.46,58492,14.25,73046.0,-6.41,-35.17,-36.19,0,*5C
1487603120.72,58493,14.25,73046.0,-6.41,-35.13,-36.25,0,*56
1487603121.98,58494,14.19,73044.0,-6.41,-35.07,-36.19,0,*5B
1487603123.22,58495,14.25,73048.5,-6.39,-35.07,-35.89,0,*5F
1487603124.43,58496,14.25,73048.3,-6.39,-35.13,-36.19,0,*53
1487603125.68,58497,14.25,73054.5,-6.41,-35.47,-36.49,0,*59
1487603126.94,58498,14.25,73052.8,-6.41,-35.47,-36.49,0,*56
1487603128.19,58499,14.25,73048.8,-6.41,-35.35,-36.43,0,*58
1487603129.42,58500,14.25,73044.8,-6.41,-35.47,-36.43,0,*5C
1487603130.63,58501,14.25,73048.0,-6.43,-35.59,-36.67,0,*56
1487603131.84,58502,14.25,73048.0,-6.43,-35.71,-36.67,0,*5F
1487603133.08,58503,14.25,73050.0,-6.45,-35.77,-36.67,0,*5E
1487603134.3,58504,14.25,73046.0,-6.43,-35.53,-36.55,0,*58
1487603135.56,58505,14.25,73044.0,-6.45,-35.53,-36.55,0,*5F
1487603136.81,58506,14.25,73040.3,-6.45,-35.35,-36.43,0,*5B
1487603138.07,58507,14.25,73036.0,-6.45,-35.17,-36.25,0,*5A
1487603139.33,58508,14.25,73038.3,-6.45,-35.35,-36.31,0,*50
1487603140.56,58509,14.25,73036.3,-6.45,-35.59,-36.67,0,*58
1487603141.79,58510,14.25,73042.8,-6.47,-35.41,-36.43,0,*5D
1487603143.02,58511,14.25,73046.3,-6.47,-35.35,-36.43,0,*5F
1487603144.28,58512,14.25,73050.8,-6.47,-35.23,-36.25,0,*5B
1487603145.48,58513,14.25,73046.8,-6.47,-35.13,-36.07,0,*59
1487603146.7,58514,14.25,73046.5,-6.47,-35.13,-35.89,0,*5B
1487603147.91,58515,14.25,73040.8,-6.47,-35.13,-35.89,0,*5A
1487603149.15,58516,14.25,73044.3,-6.47,-35.13,-35.95,0,*54
1487603150.39,58517,14.25,73046.5,-6.47,-35.13,-35.95,0,*55
1487603151.62,58518,14.25,73044.8,-6.47,-35.17,-36.13,0,*53
1487603152.86,58519,14.25,73046.8,-6.47,-35.13,-35.95,0,*5B
1487603154.12,58520,14.25,73046.3,-6.51,-35.23,-36.13,0,*58
1487603155.32,58521,14.25,73044.3,-6.47,-35.17,-36.07,0,*5C
1487603156.55,58522,14.25,73050.5,-6.51,-35.17,-36.13,0,*5D
1487603157.78,58523,14.25,73044.0,-6.47,-35.01,-35.89,0,*5C
1487603158.99,58524,14.25,73044.3,-6.51,-35.29,-36.31,0,*56
1487603160.19,58525,14.25,73040.3,-6.47,-35.17,-36.07,0,*58
1487603161.4,58526,14.25,73042.3,-6.47,-35.01,-36.07,0,*5C
1487603162.62,58527,14.25,73038.5,-6.47,-35.13,-35.89,0,*5B
1487603163.87,58528,14.25,73042.0,-6.47,-35.01,-35.95,0,*5A
1487603165.14,58529,14.25,73036.5,-6.51,-35.07,-35.95,0,*5A
1487603166.38,58530,14.25,73040.0,-6.47,-34.95,-35.89,0,*52
1487603167.61,58531,14.25,73036.8,-6.47,-35.01,-35.89,0,*5F
1487603168.85,58532,14.25,73038.3,-6.47,-35.13,-35.95,0,*52
1487603170.12,58533,14.25,73034.5,-6.51,-35.07,-35.95,0,*51
1487603171.33,58534,14.25,73034.8,-6.47,-35.17,-36.01,0,*5E
1487603172.59,58535,14.25,73034.8,-6.47,-35.23,-36.25,0,*5E
1487603173.85,58536,14.25,73030.5,-6.47,-35.23,-36.13,0,*58
1487603175.06,58537,14.25,73034.0,-6.47,-35.17,-35.89,0,*5E
1487603176.28,58538,14.25,73036.0,-6.47,-35.13,-35.89,0,*55
1487603177.52,58539,14.25,73032.3,-6.47,-35.17,-35.95,0,*5D
1487603178.72,58540,14.25,73036.0,-6.47,-35.17,-36.07,0,*5B
1487603179.93,58541,14.25,73032.5,-6.51,-35.29,-36.19,0,*5F
1487603181.19,58542,14.25,73032.0,-6.47,-35.23,-36.13,0,*5B
1487603182.42,58543,14.25,73030.5,-6.51,-35.77,-36.61,0,*59
1487603183.63,58544,14.25,73032.5,-6.47,-35.59,-36.55,0,*52
1487603184.87,58545,14.25,73034.5,-6.51,-35.95,-36.73,0,*50
1487603186.1,58546,14.25,73034.5,-6.51,-35.47,-36.49,0,*55
1487603187.36,58547,14.25,73036.0,-6.53,-35.47,-36.37,0,*5F
1487603188.59,58548,14.25,73040.8,-6.53,-35.29,-36.19,0,*54
1487603189.87,58549,14.25,73040.0,-6.53,-35.35,-36.25,0,*57
1487603191.12,58550,14.25,73044.0,-6.53,-35.35,-36.19,0,*50
1487603192.33,58551,14.25,73044.5,-6.55,-35.29,-36.07,0,*55
1487603193.56,58552,14.25,73044.5,-6.53,-35.29,-36.19,0,*5F
1487603194.8,58553,14.25,73046.8,-6.55,-35.53,-36.55,0,*5D
1487603196.06,58554,14.25,73046.5,-6.55,-35.35,-36.25,0,*5D
1487603197.29,58555,14.25,73044.8,-6.55,-35.47,-36.37,0,*5A
1487603198.55,58556,14.25,73042.8,-6.53,-35.47,-36.25,0,*5C
1487603199.81,58557,14.25,73048.3,-6.55,-35.35,-36.37,0,*5D
1487603201.06,58558,14.25,73048.0,-6.53,-35.35,-36.43,0,*57
1487603202.3,58559,14.25,73044.5,-6.55,-35.47,-36.25,0,*55
1487603203.56,58560,14.25,73048.0,-6.55,-35.35,-36.37,0,*59
1487603204.79,58561,14.25,73040.0,-6.55,-35.47,-36.37,0,*5D
1487603206.05,58562,14.25,73038.0,-6.55,-35.35,-36.25,0,*58
1487603207.31,58563,14.25,73044.0,-6.53,-35.29,-36.37,0,*51
1487603208.52,58564,14.25,73046.5,-6.55,-35.47,-36.43,0,*5B
1487603209.77,58565,14.25,73044.0,-6.55,-35.65,-36.37,0,*59
1487603211.03,58566,14.25,73042.3,-6.55,-35.35,-36.25,0,*5C
1487603212.24,58567,14.25,73042.5,-6.55,-35.29,-36.07,0,*50
1487603213.45,58568,14.25,73036.8,-6.55,-35.29,-36.07,0,*5F
1487603214.7,58569,14.25,73040.8,-6.55,-35.23,-36.01,0,*52
1487603215.91,58570,14.25,73042.5,-6.55,-35.29,-36.07,0,*56
1487603217.12,58571,14.25,73044.3,-6.55,-35.13,-36.01,0,*58
1487603218.39,58572,14.25,73040.8,-6.57,-35.17,-35.95,0,*53
1487603219.65,58573,14.25,73044.5,-6.57,-35.41,-36.31,0,*5C
1487603220.91,58574,14.25,73042.8,-6.57,-35.41,-36.31,0,*5B
1487603222.17,58575,14.25,73044.0,-6.55,-35.53,-36.25,0,*5E
1487603223.46,58576,14.25,73042.0,-6.57,-35.35,-36.25,0,*5F
1487603224.74,58577,14.25,73040.0,-6.57,-35.35,-36.13,0,*5B
1487603226.03,58578,14.25,73044.0,-6.57,-35.35,-36.25,0,*51
1487603227.32,58579,14.25,73046.3,-6.57,-35.35,-36.25,0,*50
1487603228.6,58580,14.25,73044.0,-6.57,-35.35,-36.13,0,*53
1487603229.83,58581,14.25,73050.5,-6.59,-35.35,-36.07,0,*59
1487603231.09,58582,14.25,73046.3,-6.59,-35.35,-36.13,0,*5F
1487603232.35,58583,14.25,73050.8,-6.57,-35.35,-36.07,0,*55
1487603233.56,58584,14.25,73050.0,-6.59,-35.29,-36.07,0,*51
1487603234.78,58585,14.25,73046.8,-6.59,-35.29,-35.89,0,*55
1487603236.01,58586,14.25,73046.3,-6.59,-35.29,-35.89,0,*56
1487603237.25,58587,14.25,73046.8,-6.59,-35.17,-35.95,0,*57
1487603238.49,58588,14.25,73048.3,-6.59,-35.17,-35.95,0,*58
1487603239.79,58589,14.25,73048.3,-6.57,-35.35,-35.95,0,*57
1487603241.02,58590,14.25,73046.5,-6.59,-35.35,-36.07,0,*59
1487603242.28,58591,14.25,73050.5,-6.57,-35.59,-36.25,0,*5C
1487603243.49,58592,14.25,73046.3,-6.59,-35.71,-36.31,0,*5E
1487603244.76,58593,14.25,73048.8,-6.57,-35.77,-36.49,0,*58
1487603245.98,58594,14.25,73042.8,-6.59,-35.77,-36.31,0,*5E
1487603247.24,58595,14.25,73040.0,-6.59,-35.41,-36.25,0,*5F
1487603248.49,58596,14.25,73044.5,-6.59,-35.41,-36.13,0,*59
1487603249.69,58597,14.25,73044.3,-6.61,-35.59,-36.19,0,*50
1487603250.92,58598,14.25,73044.8,-6.61,-35.77,-36.37,0,*5F
1487603252.19,58599,14.25,73050.3,-6.63,-35.95,-36.55,0,*54
1487603253.42,58600,14.25,73050.8,-6.61,-36.13,-36.73,0,*5C
1487603254.65,58601,14.25,73044.0,-6.63,-35.59,-36.19,0,*5E
1487603255.86,58602,14.25,73048.0,-6.61,-35.47,-36.01,0,*59
1487603257.09,58603,14.25,73048.0,-6.61,-35.41,-36.01,0,*5E
1487603258.32,58604,14.25,73042.3,-6.61,-35.41,-36.19,0,*50
1487603259.58,58605,14.25,73042.3,-6.63,-35.47,-36.13,0,*5F
1487603260.83,58606,14.25,73040.3,-6.63,-35.77,-36.37,0,*59
1487603262.09,58607,14.25,73042.3,-6.63,-35.77,-36.37,0,*58
1487603263.36,58608,14.25,73042.3,-6.63,-35.95,-36.67,0,*5E
1487603264.59,58609,14.25,73044.8,-6.63,-36.01,-36.67,0,*51
1487603265.83,58610,14.25,73046.3,-6.63,-36.01,-36.67,0,*59
1487603267.09,58611,14.25,73046.0,-6.63,-36.13,-36.73,0,*5E
1487603268.32,58612,14.25,73050.0,-6.63,-36.19,-36.73,0,*57
1487603269.56,58613,14.25,73046.8,-6.65,-36.07,-36.61,0,*5C
1487603270.77,58614,14.25,73050.5,-6.65,-35.89,-36.43,0,*5E
1487603272.0,58615,14.25,73050.3,-6.65,-36.01,-36.37,0,*5F
1487603273.26,58616,14.25,73050.5,-6.67,-35.83,-36.43,0,*54
1487603274.51,58617,14.25,73046.8,-6.67,-35.89,-36.55,0,*58
1487603275.74,58618,14.25,73046.0,-6.65,-35.71,-36.37,0,*56
1487603276.99,58619,14.25,73044.0,-6.65,-35.65,-36.37,0,*52
1487603278.25,58620,14.25,73044.3,-6.65,-35.65,-36.25,0,*5B
1487603279.51,58621,14.25,73040.3,-6.67,-35.71,-36.25,0,*5D
1487603280.8,58622,14.25,73036.5,-6.67,-35.83,-36.25,0,*53
1487603282.07,58623,14.25,73038.0,-6.67,-35.71,-36.25,0,*5F
1487603283.33,58624,14.25,73036.3,-6.67,-35.71,-36.25,0,*58
1487603284.57,58625,14.25,73038.0,-6.67,-35.71,-36.19,0,*56
1487603285.77,58626,14.25,73036.5,-6.65,-35.71,-36.19,0,*57
1487603287.03,58627,14.25,73038.0,-6.67,-35.65,-36.19,0,*51
1487603288.25,58628,14.25,73038.5,-6.65,-35.53,-36.07,0,*56
1487603289.5,58629,14.25,73040.3,-6.67,-35.65,-36.07,0,*50
1487603290.77,58630,14.25,73046.0,-6.67,-35.71,-36.25,0,*5D
1487603292.06,58631,14.25,73044.0,-6.67,-35.83,-36.25,0,*51
1487603293.29,58632,14.25,73044.3,-6.67,-35.71,-36.19,0,*50
1487603294.53,58633,14.25,73046.0,-6.67,-35.71,-36.19,0,*51
1487603295.78,58634,14.25,73046.0,-6.67,-35.53,-36.19,0,*56
1487603297.03,58635,14.25,73040.8,-6.67,-35.65,-36.19,0,*52